Location: Unspecified
(0.0000°N, 0.0000°E)
Time: 08:01:52
(UTC+00:00)

S-56A Canister/Altair - Visible Passes

Search period start: 01 May 2016 00:00
Search period end: 11 May 2016 00:00
Orbit: 639 x 2496 km, 38.9° (Epoch: 25 April)

Date Brightness Start Highest point End Pass type
(mag) Time Alt. Az. Time Alt. Az. Time Alt. Az.
01 May 10.3 20:41:23 10° NNW 20:51:48 40° NNE 20:51:48 40° NNE visible
01 May 11.2 22:45:37 10° NW 22:49:15 23° WNW 22:49:15 23° WNW visible
02 May 10.4 20:09:10 10° NNW 20:19:51 35° NE 20:21:09 34° NE visible
02 May 10.7 22:12:43 10° NW 22:18:36 35° NW 22:18:36 35° NW visible
03 May 10.5 19:37:06 10° NNW 19:46:47 30° NE 19:50:34 26° ENE visible
03 May 10.3 21:39:57 10° NW 21:48:01 49° NW 21:48:01 49° NW visible
04 May 10.6 19:05:14 10° N 19:13:46 25° NE 19:20:01 18° ENE visible
04 May 9.8 21:07:20 10° NW 21:17:30 67° NNW 21:17:30 67° NNW visible
04 May 11.6 23:14:19 10° WNW 23:14:57 12° W 23:14:57 12° W visible
05 May 10.7 18:33:35 10° N 18:40:48 20° NE 18:49:33 10° E visible
05 May 9.6 20:34:51 10° NW 20:46:48 71° NE 20:47:01 71° NE visible
05 May 11.2 22:40:59 10° WNW 22:44:29 21° W 22:44:29 21° W visible
06 May 9.7 20:02:29 10° NW 20:13:42 62° NE 20:16:36 54° E visible
06 May 10.8 22:07:50 10° WNW 22:14:04 33° W 22:14:04 33° W visible
07 May 9.8 19:30:14 10° NNW 19:40:41 54° NE 19:46:14 37° E visible
07 May 10.3 21:34:51 10° WNW 21:43:42 47° W 21:43:42 47° W visible
08 May 9.9 18:58:07 10° NNW 19:07:46 46° NE 19:15:54 24° ESE visible
08 May 9.9 21:02:03 10° WNW 21:13:23 61° SW 21:13:23 61° SW visible
09 May 10.0 18:26:08 10° NNW 18:34:56 39° NE 18:45:37 13° ESE visible
09 May 9.7 20:29:22 10° WNW 20:40:43 69° SW 20:43:06 61° S visible
09 May 11.4 22:38:22 10° W 22:40:34 15° WSW 22:40:34 15° WSW visible
10 May 10.8 05:18:20 10° S 05:22:33 13° SSE 05:26:08 10° SE visible
10 May 9.6 19:56:50 10° NW 20:07:35 77° SW 20:12:50 46° SSE visible
10 May 11.1 22:04:46 10° W 22:10:19 23° WSW 22:10:19 23° WSW visible
